KK4WXG Weather Reports


time (UTC)temp
F
wind
direction
speed
knots
gust
knots
rain 1hr
in
rain 24hr
in
rain mn
in
humidity
%
barometer
mb
20260505214200 80 221 15.6 16.5 0.00 0.00 0.00 30 1008.4
20260505213657 80 207 7.8 12.2 0.00 0.00 0.00 31 1008.3
20260505213154 80 208 9.6 13.9 0.00 0.00 0.00 31 1008.3
20260505212650 80 209 8.7 13.9 0.00 0.00 0.00 32 1008.3
20260505212148 80 212 7.8 21.7 0.00 0.00 0.00 32 1008.1
20260505211645 80 212 9.6 13.0 0.00 0.00 0.00 31 1008.1
20260505211142 80 209 12.2 17.4 0.00 0.00 0.00 30 1008.1
20260505210638 80 206 13.9 15.6 0.00 0.00 0.00 31 1008.1
20260505210135 80 218 11.3 13.0 0.00 0.00 0.00 33 1008.2
20260505205633 80 209 21.7 21.7 0.00 0.00 0.00 30 1008.3
20260505205131 81 218 13.0 16.5 0.00 0.00 0.00 33 1008.3
20260505204627 81 219 7.0 13.9 0.00 0.00 0.00 32 1008.2
20260505204125 81 212 8.7 16.5 0.00 0.00 0.00 33 1008.2
20260505203621 81 205 13.0 14.8 0.00 0.00 0.00 32 1008.1
20260505203119 81 196 7.8 17.4 0.00 0.00 0.00 33 1008.1
20260505202614 81 193 10.4 20.9 0.00 0.00 0.00 32 1007.9
20260505202111 81 216 10.4 17.4 0.00 0.00 0.00 33 1008.1
20260505201607 81 204 11.3 18.2 0.00 0.00 0.00 32 1008.0
20260505201105 82 211 7.0 16.5 0.00 0.00 0.00 34 1008.1
20260505200603 82 218 12.2 19.1 0.00 0.00 0.00 32 1007.9
20260505200100 82 189 6.1 16.5 0.00 0.00 0.00 33 1008.1
20260505195555 83 217 16.5 16.5 0.00 0.00 0.00 33 1008.1
20260505195053 82 173 10.4 19.1 0.00 0.00 0.00 33 1008.2
20260505194550 82 204 12.2 20.9 0.00 0.00 0.00 33 1008.0
20260505194046 83 208 16.5 23.5 0.00 0.00 0.00 33 1008.0
20260505193543 82 158 8.7 13.9 0.00 0.00 0.00 34 1008.3
20260505193040 82 215 13.9 23.5 0.00 0.00 0.00 36 1008.2
20260505192539 82 205 13.0 20.9 0.00 0.00 0.00 35 1008.6
20260505192036 82 183 4.3 16.5 0.00 0.00 0.00 36 1008.5
20260505191534 82 206 11.3 24.3 0.00 0.00 0.00 36 1008.3
20260505191032 82 207 13.9 16.5 0.00 0.00 0.00 35 1008.4
20260505190532 82 204 6.1 18.2 0.00 0.00 0.00 36 1008.8
20260505190028 82 171 7.8 13.9 0.00 0.00 0.00 35 1008.8
20260505185525 82 209 9.6 15.6 0.00 0.00 0.00 37 1008.8
20260505185021 82 202 9.6 15.6 0.00 0.00 0.00 36 1008.8
20260505184518 82 199 3.5 12.2 0.00 0.00 0.00 38 1008.9
20260505184015 82 212 13.9 18.2 0.00 0.00 0.00 35 1009.1
20260505183512 82 216 7.0 11.3 0.00 0.00 0.00 40 1009.2
20260505183009 81 225 7.8 13.9 0.00 0.00 0.00 36 1009.2
20260505182506 81 196 9.6 14.8 0.00 0.00 0.00 37 1009.4
20260505182002 81 201 9.6 17.4 0.00 0.00 0.00 38 1009.3
20260505181459 81 199 13.0 13.9 0.00 0.00 0.00 37 1009.3
20260505180956 82 216 10.4 13.0 0.00 0.00 0.00 38 1009.3
20260505180452 81 206 12.2 13.9 0.00 0.00 0.00 36 1009.8
20260505175949 81 196 5.2 13.0 0.00 0.00 0.00 37 1009.6
20260505175445 81 234 8.7 12.2 0.00 0.00 0.00 37 1009.5
20260505174942 80 200 7.8 13.9 0.00 0.00 0.00 37 1009.6
20260505174439 80 203 9.6 18.2 0.00 0.00 0.00 36 1009.8
20260505173935 80 210 9.6 14.8 0.00 0.00 0.00 39 1009.8
20260505173432 80 207 13.0 14.8 0.00 0.00 0.00 36 1009.8
20260505172929 80 200 9.6 13.9 0.00 0.00 0.00 36 1009.9
20260505172427 80 201 11.3 13.9 0.00 0.00 0.00 37 1010.1
20260505171926 80 180 5.2 13.0 0.00 0.00 0.00 37 1009.7
20260505171424 79 201 11.3 16.5 0.00 0.00 0.00 37 1010.1
20260505170920 79 222 9.6 19.1 0.00 0.00 0.00 39 1010.1
20260505170417 80 207 9.6 14.8 0.00 0.00 0.00 39 1010.1
20260505165912 79 202 4.3 13.9 0.00 0.00 0.00 39 1010.3
20260505165408 80 212 6.1 9.6 0.00 0.00 0.00 41 1010.2
20260505164903 79 235 12.2 16.5 0.00 0.00 0.00 38 1010.3
20260505164401 79 235 11.3 18.2 0.00 0.00 0.00 37 1010.4
20260505163859 79 236 4.3 10.4 0.00 0.00 0.00 43 1010.7
20260505163358 79 209 5.2 12.2 0.00 0.00 0.00 39 1010.7
20260505162855 80 191 1.7 7.8 0.00 0.00 0.00 42 1010.4
20260505162351 79 211 4.3 11.3 0.00 0.00 0.00 39 1010.7
20260505161848 79 244 6.1 12.2 0.00 0.00 0.00 41 1010.8
20260505161345 78 216 6.1 11.3 0.00 0.00 0.00 43 1010.6
20260505160843 78 196 13.0 13.9 0.00 0.00 0.00 38 1011.0
20260505160341 79 229 6.1 10.4 0.00 0.00 0.00 39 1010.8
20260505153320 78 259 6.1 13.0 0.00 0.00 0.00 42 1011.1
20260505152817 78 217 12.2 14.8 0.00 0.00 0.00 40 1011.2
20260505152314 78 199 6.1 13.0 0.00 0.00 0.00 41 1011.0
20260505151814 78 205 7.0 9.6 0.00 0.00 0.00 43 1011.4
20260505151310 78 206 6.1 11.3 0.00 0.00 0.00 40 1011.3
20260505150808 78 222 8.7 9.6 0.00 0.00 0.00 44 1010.9
20260505150305 77 211 7.8 12.2 0.00 0.00 0.00 42 1011.0
20260505140229 74 220 5.2 9.6 0.00 0.00 0.00 46 1010.8
20260505130153 68 161 5.2 6.1 0.00 0.00 0.00 57 1011.4
20260505124643 67 205 5.2 6.1 0.00 0.00 0.00 59 1011.4
20260505124139 66 220 5.2 7.8 0.00 0.00 0.00 61 1011.7
20260505123635 66 192 3.5 4.3 0.00 0.00 0.00 63 1011.8
20260505123132 65 203 3.5 5.2 0.00 0.00 0.00 63 1011.8
20260505122629 64 228 9.6 9.6 0.00 0.00 0.00 64 1011.9
20260505122126 64 226 5.2 13.0 0.00 0.00 0.00 63 1011.7
20260505121623 63 214 3.5 8.7 0.00 0.00 0.00 65 1011.8
20260505121119 63 203 5.2 7.0 0.00 0.00 0.00 66 1011.7
20260505120615 62 206 5.2 7.8 0.00 0.00 0.00 67 1011.7
20260505120111 62 189 2.6 5.2 0.00 0.00 0.00 68 1011.8
20260505115606 61 216 4.3 5.2 0.00 0.00 0.00 69 1011.6
20260505115104 61 215 4.3 7.0 0.00 0.00 0.00 68 1011.5
20260505114601 60 201 5.2 7.0 0.00 0.00 0.00 69 1011.4
20260505114057 60 204 4.3 8.7 0.00 0.00 0.00 70 1011.4
20260505113553 60 210 2.6 5.2 0.00 0.00 0.00 72 1011.4
20260505113050 59 205 1.7 5.2 0.00 0.00 0.00 74 1011.3
20260505112547 58 188 1.7 3.5 0.00 0.00 0.00 75 1011.5
20260505112045 58 182 2.6 2.6 0.00 0.00 0.00 75 1011.3
20260505111544 56 172 1.7 2.6 0.00 0.00 0.00 77 1011.0
20260505111040 56 180 1.7 1.7 0.00 0.00 0.00 78 1011.3
20260505110537 55 178 1.7 1.7 0.00 0.00 0.00 78 1011.0
20260505102009 54 165 0.0 1.7 0.00 0.00 0.00 82 1010.4
20260505101508 53 145 0.9 1.7 0.00 0.00 0.00 84 1010.5
20260505101004 52 158 1.7 1.7 0.00 0.00 0.00 87 1010.5
20260505100501 52 66 0.0 1.7 0.00 0.00 0.00 87 1010.4
20260505095957 51 33 0.0 1.7 0.00 0.00 0.00 88 1010.4
20260505095454 51 38 0.9 2.6 0.00 0.00 0.00 88 1010.5
20260505094950 51 56 1.7 2.6 0.00 0.00 0.00 87 1010.3
20260505094447 51 33 0.9 1.7 0.00 0.00 0.00 87 1010.3
20260505093943 52 72 0.0 1.7 0.00 0.00 0.00 85 1010.2
20260505093440 52 91 1.7 1.7 0.00 0.00 0.00 84 1010.2
20260505092937 53 97 1.7 2.6 0.00 0.00 0.00 83 1010.2
20260505092434 53 132 0.9 1.7 0.00 0.00 0.00 84 1010.2
20260505091932 53 127 0.0 1.7 0.00 0.00 0.00 83 1010.2
20260505091430 53 133 1.7 1.7 0.00 0.00 0.00 83 1010.2
20260505090927 53 31 1.7 1.7 0.00 0.00 0.00 82 1010.3
20260505090425 53 49 1.7 1.7 0.00 0.00 0.00 82 1010.2
20260505085922 54 34 1.7 1.7 0.00 0.00 0.00 81 1010.1
20260505085420 54 72 0.9 1.7 0.00 0.00 0.00 79 1010.1
20260505084918 55 106 2.6 2.6 0.00 0.00 0.00 78 1010.1
20260505084416 55 163 1.7 3.5 0.00 0.00 0.00 77 1010.3
20260505083914 55 138 1.7 2.6 0.00 0.00 0.00 78 1010.1
20260505083411 55 132 1.7 2.6 0.00 0.00 0.00 78 1009.9
20260505082907 55 140 1.7 2.6 0.00 0.00 0.00 78 1010.0
20260505082403 55 144 1.7 2.6 0.00 0.00 0.00 78 1010.0
20260505081900 55 156 1.7 2.6 0.00 0.00 0.00 78 1010.0
20260505081357 55 123 1.7 1.7 0.00 0.00 0.00 78 1009.8
20260505080853 55 132 1.7 1.7 0.00 0.00 0.00 77 1010.2
20260505080349 56 121 0.0 1.7 0.00 0.00 0.00 77 1010.1
20260505075845 56 145 0.0 1.7 0.00 0.00 0.00 75 1009.9
20260505075342 57 157 0.9 1.7 0.00 0.00 0.00 74 1009.8
20260505074839 57 215 0.0 1.7 0.00 0.00 0.00 74 1009.9
20260505074336 57 219 1.7 2.6 0.00 0.00 0.00 74 1009.9
20260505073834 57 197 0.9 2.6 0.00 0.00 0.00 74 1009.7
20260505073332 57 206 2.6 3.5 0.00 0.00 0.00 74 1009.7
20260505072828 58 233 3.5 4.3 0.00 0.00 0.00 73 1009.8
20260505072324 57 211 1.7 2.6 0.00 0.00 0.00 73 1009.9
20260505071820 57 202 0.0 1.7 0.00 0.00 0.00 74 1010.0
20260505071317 57 164 0.9 1.7 0.00 0.00 0.00 74 1009.7
20260505070815 57 192 1.7 1.7 0.00 0.00 0.00 74 1009.9
20260505070311 57 169 1.7 1.7 0.00 0.00 0.00 74 1009.9
20260505065807 57 222 0.9 2.6 0.00 0.00 0.00 74 1009.8
20260505065304 57 150 0.0 0.9 0.00 0.00 0.00 74 1009.8
20260505064801 57 139 0.0 1.7 0.00 0.00 0.00 73 1009.7
20260505064258 57 158 0.0 0.9 0.00 0.00 0.00 73 1009.9
20260505063756 58 189 0.0 1.7 0.00 0.00 0.00 73 1009.8
20260505063252 58 179 1.7 1.7 0.00 0.00 0.00 73 1010.1
20260505062749 58 232 0.9 1.7 0.00 0.00 0.00 73 1010.0
20260505062246 57 192 1.7 1.7 0.00 0.00 0.00 73 1009.8
20260505061743 57 184 1.7 1.7 0.00 0.00 0.00 73 1009.9
20260505061241 57 183 0.9 1.7 0.00 0.00 0.00 73 1009.8
20260505060738 57 169 1.7 1.7 0.00 0.00 0.00 73 1009.7
20260505060235 57 191 1.7 1.7 0.00 0.00 0.00 73 1009.8
20260505055730 57 151 1.7 1.7 0.00 0.00 0.00 73 1009.9
20260505055227 57 174 0.9 1.7 0.00 0.00 0.00 72 1009.8
20260505054724 58 184 0.0 0.9 0.00 0.00 0.00 72 1010.0
20260505054222 58 180 0.0 1.7 0.00 0.00 0.00 71 1009.6
20260505053720 58 179 1.7 1.7 0.00 0.00 0.00 71 1010.2
20260505053216 58 184 1.7 2.6 0.00 0.00 0.00 70 1010.0
20260505052714 58 198 1.7 2.6 0.00 0.00 0.00 70 1009.8
20260505052210 59 198 1.7 2.6 0.00 0.00 0.00 70 1009.9
20260505051707 59 189 1.7 2.6 0.00 0.00 0.00 69 1009.8
20260505051205 59 195 1.7 1.7 0.00 0.00 0.00 69 1009.7
20260505050703 59 180 1.7 2.6 0.00 0.00 0.00 68 1009.8
20260505050201 60 187 1.7 2.6 0.00 0.00 0.00 67 1009.7
20260505041636 62 216 6.1 7.0 0.00 0.00 0.00 62 1010.0
20260505041134 63 211 5.2 9.6 0.00 0.00 0.00 61 1010.0
20260505040631 63 216 5.2 9.6 0.00 0.00 0.00 61 1010.0
20260505040128 62 209 5.2 7.8 0.00 0.00 0.00 61 1009.9
20260505035624 62 206 6.1 8.7 0.00 0.00 0.00 61 1009.9
20260505035120 63 215 4.3 8.7 0.00 0.00 0.00 61 1009.6
20260505034617 63 215 4.3 6.1 0.00 0.00 0.00 61 1010.0
20260505034114 63 199 4.3 8.7 0.00 0.00 0.00 60 1010.0
20260505033610 63 217 3.5 6.1 0.00 0.00 0.00 60 1009.9
20260505033110 63 207 6.1 7.8 0.00 0.00 0.00 60 1009.9
20260505032607 63 211 3.5 4.3 0.00 0.00 0.00 60 1009.8
20260505032103 63 209 4.3 7.8 0.00 0.00 0.00 60 1009.8
20260505031601 63 209 4.3 5.2 0.00 0.00 0.00 59 1009.7
20260505031056 64 212 3.5 7.0 0.00 0.00 0.00 58 1009.8
20260505030554 64 200 3.5 7.0 0.00 0.00 0.00 57 1010.0
20260505030049 64 215 4.3 6.1 0.00 0.00 0.00 58 1010.1
20260505025545 64 220 4.3 7.0 0.00 0.00 0.00 58 1010.0
20260505025045 64 213 3.5 5.2 0.00 0.00 0.00 58 1010.3
20260505024541 63 212 2.6 5.2 0.00 0.00 0.00 58 1010.1
20260505024038 63 204 2.6 3.5 0.00 0.00 0.00 58 1010.2
20260505023535 64 215 1.7 3.5 0.00 0.00 0.00 58 1009.9
20260505023033 64 206 2.6 5.2 0.00 0.00 0.00 57 1009.8
20260505022530 64 203 3.5 4.3 0.00 0.00 0.00 57 1010.0
20260505022027 65 207 2.6 3.5 0.00 0.00 0.00 56 1009.8
20260505021524 65 196 3.5 5.2 0.00 0.00 0.00 55 1009.9
20260505021021 66 219 5.2 5.2 0.00 0.00 0.00 54 1009.9
20260505020520 66 210 3.5 7.8 0.00 0.00 0.00 54 1010.0
20260505020018 66 211 1.7 5.2 0.00 0.00 0.00 53 1009.9
20260505015515 66 203 1.7 4.3 0.00 0.00 0.00 52 1009.9
20260505015012 67 207 3.5 7.0 0.00 0.00 0.00 51 1009.9
20260505014509 67 215 7.0 7.0 0.00 0.00 0.00 51 1009.7
20260505014006 68 205 6.1 10.4 0.00 0.00 0.00 50 1009.4
20260505013503 68 213 9.6 10.4 0.00 0.00 0.00 49 1009.6
20260505013000 68 210 7.8 7.8 0.00 0.00 0.00 49 1009.4
20260505012458 68 205 3.5 13.0 0.00 0.00 0.00 49 1009.5
20260505011955 68 215 5.2 8.7 0.00 0.00 0.00 49 1009.4
20260505011450 68 208 3.5 7.8 0.00 0.00 0.00 48 1009.5
20260505010947 69 217 6.1 8.7 0.00 0.00 0.00 48 1009.3
20260505010443 69 213 4.3 11.3 0.00 0.00 0.00 47 1009.1
20260505005939 69 217 6.1 14.8 0.00 0.00 0.00 47 1009.0
20260505005436 69 207 7.8 12.2 0.00 0.00 0.00 46 1009.1
20260505004934 70 214 7.8 11.3 0.00 0.00 0.00 45 1008.9
20260505004430 70 211 6.1 12.2 0.00 0.00 0.00 45 1008.8
20260505003927 70 203 7.0 11.3 0.00 0.00 0.00 44 1008.9
20260505003425 70 206 10.4 14.8 0.00 0.00 0.00 44 1009.0
20260505002921 70 208 6.1 8.7 0.00 0.00 0.00 44 1009.0
20260505002417 70 205 5.2 12.2 0.00 0.00 0.00 45 1008.8
20260505001916 70 208 9.6 10.4 0.00 0.00 0.00 43 1008.6
20260505001413 70 217 8.7 14.8 0.00 0.00 0.00 43 1008.6
20260505000910 71 211 10.4 11.3 0.00 0.00 0.00 43 1008.6
20260505000408 71 206 12.2 13.9 0.00 0.00 0.00 42 1008.5
20260504235904 71 205 9.6 13.9 0.00 0.00 0.00 42 1008.8
20260504235401 71 203 6.1 13.0 0.00 0.00 0.00 42 1008.6
20260504234857 71 205 9.6 13.9 0.00 0.00 0.00 41 1008.4
20260504234355 71 205 5.2 7.0 0.00 0.00 0.00 43 1008.6
20260504233852 71 202 7.8 8.7 0.00 0.00 0.00 41 1008.5
20260504233347 72 198 5.2 9.6 0.00 0.00 0.00 42 1008.5
20260504232844 71 205 3.5 5.2 0.00 0.00 0.00 42 1008.6
20260504232341 72 207 3.5 7.8 0.00 0.00 0.00 41 1008.5
20260504231838 72 169 4.3 9.6 0.00 0.00 0.00 40 1008.4
20260504231335 72 198 3.5 6.1 0.00 0.00 0.00 40 1008.5
20260504230831 73 193 2.6 7.8 0.00 0.00 0.00 40 1008.5
20260504230329 73 206 6.1 10.4 0.00 0.00 0.00 39 1008.4
20260504225827 73 185 5.2 13.0 0.00 0.00 0.00 39 1008.4
20260504225323 73 203 5.2 13.9 0.00 0.00 0.00 38 1008.4
20260504224821 73 176 10.4 13.0 0.00 0.00 0.00 37 1008.4
20260504224318 74 199 6.1 9.6 0.00 0.00 0.00 37 1008.5
20260504223814 74 210 7.8 12.2 0.00 0.00 0.00 36 1008.3
20260504223310 75 191 8.7 14.8 0.00 0.00 0.00 36 1008.3
20260504222807 75 213 7.8 8.7 0.00 0.00 0.00 36 1008.4
20260504222305 75 210 10.4 11.3 0.00 0.00 0.00 35 1008.3
20260504221802 75 178 4.3 7.8 0.00 0.00 0.00 36 1008.5
20260504221258 75 202 7.8 11.3 0.00 0.00 0.00 35 1008.4
20260504220755 75 192 5.2 14.8 0.00 0.00 0.00 35 1008.5
20260504220252 75 211 7.8 15.6 0.00 0.00 0.00 36 1008.4
20260504215749 76 217 12.2 13.9 0.00 0.00 0.00 36 1008.3
20260504215246 75 214 7.0 14.8 0.00 0.00 0.00 36 1008.2
20260504214742 76 200 11.3 13.9 0.00 0.00 0.00 33 1008.4